Notices

What's New in latest Release from April 7th, 2021:

- Updated Glossary, including Speed of Maximum Gust, and Total Hourly Precipitation

- Updated national and regional climate services offices contacts and prices information

- Addition of station inventory lists for 1981-2010, 1971-2000, and 1961-1990 Normals.

If you haven't already, please take our survey and provide feedback about our website: https://eccc.sondage-survey.ca/f/LanguageSelection.aspx?s=442ca660-fcf1-47c0-95a9-59707d6fd709

Hourly Data Report for September 17, 2019

QUALICUM BEACH AIRPORT
BRITISH COLUMBIA
Current Station Operator: ECCC - MSC

49°20'14.000" N
124°23'38.000" W
58.20 m
1026562
71766
VOQ

Download Data

Hourly Data (September 2019)
Hourly Data Report for September 17, 2019
TIME
LST
Temp Definition
°C
Dew Point Definition
°C
Rel Hum Definition
%
Precip. Amount Definition
mm

Wind Dir Definition
10's deg

Wind Spd Definition
km/h
Visibility Definition
km
Stn Press Definition
kPa
Hmdx Definition


Wind Chill Definition


Weather Definition


00:00 13.4 9.4 77 0.0 13 8   99.92     LegendNANA
01:00 13.1 10.0 82 0.0 13 15   99.88     LegendNANA
02:00 12.7 10.8 88 0.1 13 13   99.83     LegendNANA
03:00 12.8 10.7 87 0.0 12 13   99.76     LegendNANA
04:00 12.6 11.0 90 0.0 13 14   99.70     LegendNANA
05:00 12.1 11.1 94 1.5 13 12   99.70     LegendNANA
06:00 12.0 11.4 96 4.0 11 14   99.61     LegendNANA
07:00 12.2 11.6 96 2.3 11 17   99.52     LegendNANA
08:00 12.3 11.5 94 1.0 13 20   99.54     LegendNANA
09:00 12.4 11.4 94 0.2 12 20   99.58     LegendNANA
10:00 13.2 11.6 90 0.0 13 25   99.58     LegendNANA
11:00 13.5 12.2 92 0.0 12 19   99.58     LegendNANA
12:00 14.4 12.6 89 0.1 11 16   99.58     LegendNANA
13:00 14.1 12.0 88 0.1 12 20   99.62     LegendNANA
14:00 12.8 11.9 95 1.1 33 11   99.71     LegendNANA
15:00 12.9 12.3 97 7.9 13 8   99.70     LegendNANA
16:00 12.8 12.2 96 0.9 11 7   99.74     LegendNANA
17:00 13.4 12.5 95 0.1 12 8   99.78     LegendNANA
18:00 12.8 12.3 96 0.3 10 10   99.82     LegendNANA
19:00 12.6 12.1 97 1.0 11 7   99.87     LegendNANA
20:00 12.6 12.2 97 0.5 12 6   99.95     LegendNANA
21:00 12.8 12.4 97 0.3 16 2   100.00     LegendNANA
22:00 12.4 11.9 97 0.0   0   100.04     LegendNANA
23:00 12.2 11.7 97 0.0 24 2   100.08     LegendNANA

Notes on Data Quality.

Legend

  • E = Estimated
  • M = Missing
  • NA = Not Available*
  • [empty] = Indicates an unobserved value
Date modified: